Regional Weather Roundup
Issued by NWS

Home | Current Version | Previous Version | Text Only | Print | Product List | Glossary On
Versions: 1 2 3 4 5 6 7 8 9 10 11 12 13 14 15 16 17 18 19 20 21 22 23 24 25 26 27 28 29 30 31 32 33 34 35 36 37 38 39 40 41 42 43 44 45 46 47 48 49 50
000
ASUS45 KBOI 241510
RWRID

IDAHO REGIONAL WEATHER ROUNDUP
NATIONAL WEATHER SERVICE BOISE ID
800 AM MST TUE JAN 24 2017

NOTE: "FAIR" INDICATES FEW OR NO CLOUDS BELOW 12000 FEET
WITH NO SIGNIFICANT WEATHER AND/OR OBSTRUCTIONS TO VISIBILITY

IDZ012-014-241600-
SOUTHWEST IDAHO


CITY           SKY/WX    TMP DP  RH WIND       PRES   REMARKS
BOISE          PTCLDY    24  20  84 W7        29.80R WCI  16
CALDWELL       PTCLDY    26  21  81 W20       29.85R WCI  12
MOUNTAIN HOME  MOCLDY    27  27  99 NW26G33   29.77R WCI  12
$$

IDZ016-017-241600-
SOUTHCENTRAL IDAHO


CITY           SKY/WX    TMP DP  RH WIND       PRES   REMARKS
BURLEY         LGT SNOW  26  22  84 W13       29.73R FOG     WCI  15
JEROME         LGT SNOW  24  23  96 SW16      29.74R FOG     WCI  11
TWIN FALLS     LGT SNOW  26  22  84 SW14      29.74R FOG     WCI  14
$$

IDZ019>023-241600-
SOUTHEAST IDAHO


CITY           SKY/WX    TMP DP  RH WIND       PRES   REMARKS
IDAHO FALLS    LGT SNOW  23  21  92 NW15      29.67R FOG     WCI  10
POCATELLO      LGT SNOW  24  22  91 SW8       29.74R FOG     WCI  15
REXBURG        LGT SNOW  23  22  96 E5        29.68R VSB 1   WCI  17
$$

IDZ006-010-011-018-031-032-241600-
CENTRAL IDAHO MOUNTAINS


CITY           SKY/WX    TMP DP  RH WIND       PRES   REMARKS
MCCALL         PTCLDY    23  15  71 N8        29.73R WCI  14
HAILEY         MOCLDY    19  19 100 CALM      29.70R FOG
STANLEY          N/A      7   4  87 CALM      29.69R
SALMON         CLOUDY    10   7  85 CALM      29.82R
CHALLIS        CLOUDY    19  11  70 NW7       29.74R WCI  10
$$

IDZ002-004-006-007-026-241600-
NORTHERN IDAHO


CITY           SKY/WX    TMP DP  RH WIND       PRES   REMARKS
LEWISTON       CLOUDY    32  28  85 SW6       30.02R WCI  26
LOWELL           N/A     32  27  81 VRB3      30.01R
COEUR D`ALENE  CLOUDY    30  29  96 N3        29.96R FOG
MULLAN PASS    FOG       20  16  84 N3        29.79R VSB 1/2
$$



USA.gov is the U.S. government's official web portal to all federal, state and local government web resources and services.